Regional Weather Roundup
Issued by NWS

Home | Current Version | Previous Version | Text Only | Print | Product List | Glossary Off
Versions: 1 2 3 4 5 6 7 8 9 10 11 12 13 14 15 16 17 18 19 20 21 22 23 24 25 26 27 28 29 30 31 32 33 34 35 36 37 38 39 40 41 42 43 44 45 46 47 48 49 50

000
ASUS45 KSLC 231610
RWRUT

UTAH REGIONAL WEATHER ROUNDUP
NATIONAL WEATHER SERVICE SALT LAKE CITY UT
1000 AM MDT FRI JUN 23 2017

UTZ001>011-023>025-231700-

NORTHERN UTAH

CITY           SKY/WX    TMP DP  RH WIND       PRES   REMARKS
BRIGHAM CITY   SUNNY     69  37  31 CALM      30.19S
HILL AFB       SUNNY     68  37  32 S8        30.20R
LOGAN          SUNNY     66  38  35 N6        30.21R
OGDEN          SUNNY     70  39  32 SE7       30.18R
SALT LAKE CITY SUNNY     74  38  27 VRB3      30.17S
TOOELE VALLEY  SUNNY     72  41  33 N3        30.19S
WENDOVER         N/A     73  19  13 NE7       30.19S
HEBER CITY     SUNNY     63  34  34 CALM      30.23S
WEST JORDAN    SUNNY     71  46  41 NE6       30.20S

$$

UTZ011>015-024>027-231700-

CENTRAL/NORTHEAST UTAH

CITY           SKY/WX    TMP DP  RH WIND       PRES   REMARKS
PROVO AIRPORT  SUNNY     70  41  34 SW5       30.19S
MOAB/CANYONLAN SUNNY     84  30  14 CALM      30.08F
DELTA          SUNNY     73  25  16 N5        30.18S
PRICE          SUNNY     76  29  17 NE8       30.18F
RICHFIELD      SUNNY     72  36  26 CALM      30.21
ROOSEVELT      SUNNY     70  34  26 SW3       30.23S
VERNAL         SUNNY     71  35  26 VRB3      30.20F

$$

UTZ013>016-019>022-027-231700-

SOUTHERN UTAH

CITY           SKY/WX    TMP DP  RH WIND       PRES   REMARKS
BRYCE CANYON   SUNNY     74  28  18 N5        30.32F
CEDAR CITY     SUNNY     75  28  17 CALM      30.20S
MILFORD        SUNNY     77  30  17 N13       30.18S
ST GEORGE      SUNNY     89  33  13 NW7       29.96S
HANKSVILLE     SUNNY     84  23  10 E6        30.12S
KANAB          SUNNY     88  37  16 NW10      30.12
BLANDING       SUNNY     82  25  12 E7        30.22S

$$

REGIONAL REPORTS     COLORADO/ARIZONA

CITY           SKY/WX    TMP DP  RH WIND       PRES   REMARKS
CRAIG, CO      SUNNY     63  34  33 VRB3      30.26F
GRAND JUNCTION SUNNY     80  34  19 VRB5      30.11S
RIFLE, CO      SUNNY     72  36  26 CALM      30.17F
MONTROSE, CO   SUNNY     74  31  20 NW7       30.19F
CORTEZ, CO     SUNNY     80  34  19 SE3       30.15F
COLORADO CITY    N/A     88  34  14 NW8       30.12S
PAGE, AZ       SUNNY     90  30  11 CALM      30.04S
GRAND CANYON   SUNNY     84  28  13 CALM      30.24S
KINGMAN, AZ    SUNNY     95  45  17 SW12      29.97R HX  91
FLAGSTAFF, AZ  SUNNY     83  25  12 W8        30.25F

$$

REGIONAL REPORTS    NEVADA/IDAHO/WYOMING

CITY           SKY/WX    TMP DP  RH WIND       PRES   REMARKS
LAS VEGAS, NV  SUNNY     99  24   7 NE9       29.88S HX  92
ELY, NY        SUNNY     68  25  19 N7        30.28F
ELKO, NV       SUNNY     66  23  19 CALM      30.25S
POCATELLO, ID  SUNNY     61  37  41 NE16      30.26S
BURLEY, ID     SUNNY     64  35  34 E8        30.24R
FORT BRIDGER,    N/A     58  32  37 N3        30.34F
EVANSTON, WY   SUNNY     59  35  40 SE7       30.31S
ROCK SPRINGS,  SUNNY     57  30  35 E10       30.31S
KEMMERER, WY     N/A     55  30  38 E3        30.33F

$$



USA.gov is the U.S. government's official web portal to all federal, state and local government web resources and services.